Lapse_Rate
-2.2 -2.4 -3.1 -3.1 -3.3 -0.6 0.5 0.5 0.0 0.8 1.2 1.2 1.7 1.4 0.1 -0.8 -1.2 -2.1 -1.3 -0.2 0.4 0.7
-2.9 -2.6 -2.6 -2.7 -1.2 0.5 0.3 0.8 1.1 0.9 1.6 2.0 1.7 1.8 0.2 -1.0 0.2 -0.3 -0.4 0.1 0.6 0.8
-2.5 -2.3 -2.0 -0.8 -0.2 1.4 1.9 1.8 1.5 2.0 2.5 2.1 1.6 1.2 0.9 0.3 0.2 1.1 0.5 0.6 1.4 1.7
-2.0 -1.8 -0.9 -0.2 1.4 2.3 2.1 2.5 2.9 2.9 2.6 1.9 1.9 1.4 0.8 0.7 1.1 1.6 1.4 1.7 2.3 2.8
-1.0 -0.3 0.6 1.2 3.0 2.4 3.4 3.6 3.3 3.3 2.7 2.5 1.9 1.6 2.1 2.3 1.5 2.0 2.2 2.8 2.7 2.9
0.4 1.5 1.5 1.8 2.7 4.2 4.2 4.0 3.9 2.9 2.5 2.0 1.7 2.0 1.5 2.3 2.2 2.5 2.7 3.0 2.8 2.8
1.6 1.8 3.3 3.5 4.5 4.4 4.0 4.1 2.8 2.5 2.3 2.4 1.8 1.5 1.9 1.6 1.7 2.0 2.3 2.4 2.7 3.3
2.8 4.4 5.0 4.6 4.2 4.2 4.4 3.2 2.4 2.1 2.1 1.9 1.8 2.7 0.9 1.6 1.9 1.7 1.6 1.8 2.7 3.6
5.1 5.1 5.3 4.3 4.3 4.0 3.7 2.7 2.1 2.0 1.9 1.2 3.3 3.2 3.1 2.7 1.8 1.4 1.3 1.4 2.0 2.9
5.8 5.1 4.2 4.3 3.6 2.9 2.9 2.1 1.4 1.6 1.7 2.0 1.8 3.2 3.4 3.5 1.6 1.2 1.2 1.4 2.1 3.4
4.2 3.9 3.7 4.1 3.8 2.0 1.8 1.3 1.2 1.7 2.1 2.1 2.6 3.2 3.5 3.7 1.3 1.0 1.2 2.1 3.1 3.7
3.6 4.7 3.0 1.7 1.0 0.9 2.2 1.7 2.4 2.5 2.2 1.5 1.9 3.7 3.9 2.6 1.1 1.7 1.8 3.1 3.7 4.9
4.2 3.1 2.6 3.0 2.7 2.6 3.1 3.1 2.5 2.5 2.0 3.4 2.5 5.0 5.1 4.1 2.7 3.3 2.9 2.4 3.4 6.4
3.2 4.3 4.0 3.1 3.5 3.5 2.9 2.3 2.0 2.1 2.0 2.5 2.7 2.8 6.4 7.7 6.0 5.4 4.5 3.9 4.8 5.1
Wind_Speed
15 9 8 8 9 8 8 9 10 11 9 10 10 7 7 4 3 6 4 5 3 2
12 14 11 10 8 7 9 9 12 11 11 9 9 7 5 4 4 3 3 3 2 1
13 12 12 11 11 11 10 11 12 12 11 9 8 7 5 4 5 4 2 2 2 1
12 14 13 12 12 13 12 13 12 12 10 8 7 6 5 5 5 4 3 1 2 2
14 14 14 14 13 13 13 12 12 11 10 8 6 6 5 3 4 3 2 2 2 3
15 14 13 15 15 13 13 12 10 10 9 8 7 5 5 4 3 1 0 2 3 4
15 14 13 15 15 13 12 11 10 10 9 6 7 6 5 5 4 3 3 4 4 4
15 14 14 14 14 14 11 11 11 10 7 6 7 3 5 5 3 4 5 5 5 4
14 14 13 15 14 13 11 10 10 8 7 6 4 9 7 4 3 4 4 5 5 5
14 13 13 13 13 11 9 8 9 7 6 5 5 8 7 6 3 3 4 5 5 5
15 13 11 12 10 11 8 8 6 6 5 5 4 7 5 5 3 4 5 5 5 5
13 9 11 11 9 8 7 6 4 4 5 6 4 5 2 3 3 4 5 5 6 6
9 10 10 10 9 5 6 5 4 4 4 5 4 2 2 2 1 3 4 5 6 13
9 8 7 9 8 6 5 5 4 5 3 3 2 1 6 7 2 3 3 4 5 4
Wind_Direction
138 140 143 154 155 155 159 153 137 130 125 123 120 121 111 107 111 106 111 120 118 127
135 139 146 143 145 153 142 144 132 128 130 128 128 129 131 120 112 118 131 130 123 123
132 129 135 142 144 145 143 138 132 132 133 138 133 132 129 129 127 135 116 131 139 188
132 136 136 136 142 142 139 138 135 133 130 128 130 130 126 134 131 137 103 102 201 240
128 131 133 136 141 137 139 134 133 131 128 127 122 110 120 130 121 133 146 252 248 259
128 132 137 135 135 135 131 128 130 119 120 120 115 118 103 111 93 84 274 273 265 263
131 135 136 134 132 132 126 124 117 113 112 118 112 96 103 78 56 27 14 341 328 289
133 133 130 126 121 119 121 117 112 112 110 110 99 121 94 72 43 14 346 338 321 298
126 120 127 119 117 116 116 111 112 111 109 106 125 106 87 81 38 360 337 314 310 306
113 105 103 102 108 115 114 114 106 103 119 127 120 108 82 45 29 348 327 320 313 313
93 97 108 116 115 105 107 112 110 116 118 118 129 101 73 48 27 357 339 324 316 313
104 127 113 106 121 119 118 103 109 126 116 105 123 140 102 79 49 358 318 300 302 303
124 117 121 134 111 93 103 122 118 103 115 154 150 185 328 20 140 279 281 283 288 307
117 123 131 101 96 107 108 97 101 93 69 92 152 328 337 330 230 263 288 296 306 299